Tracking 22455 objects as of 9-Mar-2021
HD Live streaming from Space Station
objects crossing your sky now

COSMOS 252 DEB

Track COSMOS 252 DEB now!
10-day predictions


NORAD ID: 19479
Int'l Code: 1968-097ET
Perigee: 527.5 km
Apogee: 1,404.2 km
Inclination: 62.8 °
Period: 104.2 minutes
Semi major axis: 7336 km
RCS: 0.0127 m2 (small)
Launch date: November 1, 1968
Source: Commonwealth of Independent States (former USSR) (CIS)
Launch site: TYURATAM MISSILE AND SPACE COMPLEX (TTMTR)

Note: This is SATELLITE DEBRIS
aabbcc
Your satellite tracking list
Your tracking list is empty




NASA's NSSDC Master Catalog

Two Line Element Set (TLE):
1 19479U 68097ET  21067.58994091  .00000374  00000-0  12114-3 0  9997
2 19479  62.8016 142.4665 0597497 173.1984 187.7647 13.81461294625223
Source of the keplerian elements: AFSPC